User: anonymous   Login
Location: Unspecified
(0.0000°N, 0.0000°E)
Time: 15:07:47
(UTC+00:00)
Language:

STS-55 - Orbit

View from above orbital plane
View from above orbital plane
View from above satellite
View from above satellite

Ground track
Ground track

The orbit data is extracted from the following two-line orbital elements,

1 22640U 93027  A 93126.25000000  .00045476 +00000-0 +12392-3 0  9999
2 22640 028.4572 196.9260 0015496 336.8767 318.3931 15.92441940001538
Epoch (UTC): 06 May 1993 06:00:00
Eccentricity: 0.0015496
inclination: 28.4572°
perigee height: 285 km
apogee height: 306 km
right ascension of ascending node: 196.9260°
argument of perigee: 336.8767°
revolutions per day: 15.92441940
mean anomaly at epoch: 318.3931°
orbit number at epoch: 153

The dashed part of the orbit path shows where the satellite is in the earth's shadow,  

DLR